• In Hungary
  • List of Countries
  • For 7 days
  • Water Temperature
  • Satellite Maps
  • Weather Map
  • News
  • Weather Widgets
  • user-avatar
    Login

    Hourly Weather Bokson

    Today, 18 June, Monday

    Time Temperature Precipitation Wind Pressure Humidity
    00:00 +7°C° 0 mm 1 mps 593 mmHg 70%
    01:00 +5°C° 0 mm 0 mps 593 mmHg 74%
    02:00 +5°C° 0 mm 0 mps 593 mmHg 76%
    03:00 +4°C° 0 mm 0 mps 593 mmHg 77%
    04:00 +4°C° 0 mm 0 mps 593 mmHg 78%
    05:00 +6°C° 0 mm 0 mps 594 mmHg 70%
    06:00 +8°C° 0 mm 0 mps 595 mmHg 61%
    07:00 +11°C° 0 mm 1 mps 596 mmHg 52%
    08:00 +12°C° 0 mm 1 mps 596 mmHg 48%
    09:00 +14°C° 0 mm 1 mps 596 mmHg 44%
    10:00 +15°C° 0 mm 1 mps 597 mmHg 39%
    11:00 +16°C° 0 mm 1 mps 597 mmHg 37%
    12:00 +18°C° 0 mm 1 mps 597 mmHg 34%
    13:00 +19°C° 0 mm 1 mps 597 mmHg 31%
    14:00 +19°C° 0 mm 1 mps 597 mmHg 30%
    15:00 +20°C° 0 mm 1 mps 596 mmHg 30%
    16:00 +20°C° 0 mm 1 mps 596 mmHg 29%
    17:00 +19°C° 0 mm 2 mps 596 mmHg 31%
    18:00 +18°C° 0 mm 2 mps 596 mmHg 33%
    19:00 +18°C° 0 mm 2 mps 596 mmHg 35%
    20:00 +16°C° 0 mm 2 mps 595 mmHg 41%
    21:00 +14°C° 0 mm 2 mps 595 mmHg 46%
    22:00 +12°C° 0 mm 2 mps 594 mmHg 52%
    23:00 +12°C° 0 mm 2 mps 594 mmHg 54%

    Tomorrow, 19 June, Tuesday

    Time Temperature Precipitation Wind Pressure Humidity
    00:00 +10°C° 0 mm 2 mps 594 mmHg 56%
    01:00 +10°C° 0 mm 2 mps 593 mmHg 58%
    02:00 +9°C° 0 mm 2 mps 593 mmHg 62%
    03:00 +9°C° 0 mm 2 mps 593 mmHg 66%
    04:00 +9°C° 0 mm 2 mps 592 mmHg 70%
    05:00 +10°C° 0 mm 3 mps 593 mmHg 68%
    06:00 +12°C° 0 mm 3 mps 593 mmHg 65%
    07:00 +13°C° 0 mm 3 mps 594 mmHg 62%
    08:00 +15°C° 0 mm 4 mps 594 mmHg 56%
    09:00 +17°C° 0 mm 4 mps 594 mmHg 51%
    10:00 +19°C° 0 mm 4 mps 594 mmHg 45%
    11:00 +20°C° 0.1 mm 4 mps 594 mmHg 43%
    12:00 +21°C° 0.1 mm 4 mps 594 mmHg 40%
    13:00 +22°C° 0.1 mm 4 mps 594 mmHg 37%
    14:00 +22°C° 0.1 mm 4 mps 594 mmHg 38%
    15:00 +22°C° 0.1 mm 4 mps 594 mmHg 38%
    16:00 +22°C° 0.1 mm 4 mps 593 mmHg 38%
    17:00 +21°C° 0.3 mm 4 mps 593 mmHg 43%
    18:00 +20°C° 0.3 mm 4 mps 593 mmHg 48%
    19:00 +19°C° 0.3 mm 4 mps 593 mmHg 52%
    20:00 +18°C° 0.1 mm 4 mps 592 mmHg 59%
    21:00 +16°C° 0.1 mm 3 mps 592 mmHg 65%
    22:00 +14°C° 0.1 mm 2 mps 591 mmHg 72%
    23:00 +14°C° 0 mm 2 mps 591 mmHg 73%

    Day after tomorrow, 20 June, Wednesday

    Time Temperature Precipitation Wind Pressure Humidity
    00:00 +13°C° 0 mm 2 mps 591 mmHg 74%
    01:00 +13°C° 0 mm 2 mps 590 mmHg 75%
    02:00 +12°C° 0 mm 2 mps 590 mmHg 76%
    03:00 +12°C° 0 mm 2 mps 590 mmHg 76%
    04:00 +10°C° 0 mm 2 mps 590 mmHg 77%
    05:00 +12°C° 0.2 mm 2 mps 590 mmHg 74%
    06:00 +14°C° 0.2 mm 2 mps 591 mmHg 71%
    07:00 +15°C° 0.2 mm 2 mps 592 mmHg 67%
    08:00 +15°C° 0.5 mm 2 mps 592 mmHg 68%
    09:00 +15°C° 0.5 mm 2 mps 592 mmHg 68%
    10:00 +15°C° 0.5 mm 2 mps 592 mmHg 69%
    11:00 +15°C° 0.6 mm 2 mps 592 mmHg 66%
    12:00 +15°C° 0.6 mm 2 mps 593 mmHg 64%
    13:00 +16°C° 0.6 mm 2 mps 593 mmHg 61%
    14:00 +16°C° 0.3 mm 2 mps 593 mmHg 59%
    15:00 +16°C° 0.3 mm 2 mps 593 mmHg 57%
    16:00 +17°C° 0.3 mm 2 mps 593 mmHg 55%
    17:00 +17°C° 0.1 mm 2 mps 593 mmHg 56%
    18:00 +16°C° 0.1 mm 2 mps 593 mmHg 57%
    19:00 +16°C° 0.1 mm 2 mps 593 mmHg 59%
    20:00 +14°C° 0 mm 1 mps 592 mmHg 67%
    21:00 +12°C° 0 mm 1 mps 592 mmHg 75%
    22:00 +10°C° 0 mm 1 mps 591 mmHg 84%
    23:00 +10°C° 0.1 mm 1 mps 591 mmHg 85%

    21 June, Thursday

    Time Temperature Precipitation Wind Pressure Humidity
    00:00 +9°C° 0.1 mm 1 mps 591 mmHg 87%
    01:00 +9°C° 0.1 mm 1 mps 591 mmHg 89%
    02:00 +9°C° 0.2 mm 1 mps 590 mmHg 90%
    03:00 +8°C° 0.2 mm 1 mps 590 mmHg 91%
    04:00 +8°C° 0.2 mm 1 mps 590 mmHg 92%
    05:00 +10°C° 0.2 mm 1 mps 591 mmHg 85%
    06:00 +11°C° 0.2 mm 1 mps 592 mmHg 79%
    07:00 +13°C° 0.2 mm 1 mps 592 mmHg 72%
    08:00 +15°C° 0.2 mm 1 mps 593 mmHg 65%
    09:00 +16°C° 0.2 mm 1 mps 593 mmHg 58%
    10:00 +19°C° 0.2 mm 1 mps 593 mmHg 50%
    11:00 +19°C° 0.5 mm 1 mps 593 mmHg 47%
    12:00 +19°C° 0.5 mm 2 mps 593 mmHg 44%
    13:00 +19°C° 0.5 mm 2 mps 593 mmHg 42%
    14:00 +19°C° 0.5 mm 2 mps 593 mmHg 43%
    15:00 +19°C° 0.5 mm 2 mps 593 mmHg 43%
    16:00 +19°C° 0.5 mm 2 mps 592 mmHg 44%
    17:00 +18°C° 0.6 mm 2 mps 592 mmHg 47%
    18:00 +18°C° 0.6 mm 2 mps 592 mmHg 50%
    19:00 +18°C° 0.6 mm 1 mps 592 mmHg 53%
    20:00 +15°C° 0.5 mm 1 mps 591 mmHg 60%
    21:00 +13°C° 0.5 mm 1 mps 591 mmHg 67%
    22:00 +11°C° 0.5 mm 1 mps 590 mmHg 75%
    23:00 +11°C° 0.2 mm 1 mps 590 mmHg 76%

    22 June, Friday

    Time Temperature Precipitation Wind Pressure Humidity
    00:00 +9°C° 0.2 mm 0 mps 590 mmHg 78%
    01:00 +9°C° 0.2 mm 0 mps 590 mmHg 80%
    02:00 +9°C° 0.3 mm 0 mps 590 mmHg 80%
    03:00 +10°C° 0.2 mm 1 mps 590 mmHg 80%
    04:00 +9°C° 0.2 mm 1 mps 590 mmHg 80%
    05:00 +11°C° 0.3 mm 1 mps 591 mmHg 73%
    06:00 +12°C° 0.3 mm 1 mps 592 mmHg 66%
    07:00 +14°C° 0.3 mm 2 mps 592 mmHg 59%
    08:00 +15°C° 0.4 mm 2 mps 593 mmHg 55%
    09:00 +16°C° 0.4 mm 2 mps 593 mmHg 50%
    10:00 +17°C° 0.4 mm 2 mps 593 mmHg 45%
    11:00 +17°C° 0.6 mm 2 mps 593 mmHg 44%
    12:00 +18°C° 0.6 mm 2 mps 593 mmHg 42%
    13:00 +18°C° 0.6 mm 2 mps 593 mmHg 41%
    14:00 +18°C° 0.9 mm 2 mps 593 mmHg 43%
    15:00 +17°C° 0.9 mm 2 mps 593 mmHg 44%
    16:00 +17°C° 0.9 mm 3 mps 593 mmHg 46%
    17:00 +16°C° 0.8 mm 2 mps 592 mmHg 49%
    18:00 +15°C° 0.8 mm 2 mps 592 mmHg 52%
    19:00 +15°C° 0.8 mm 2 mps 592 mmHg 55%
    20:00 +13°C° 0.1 mm 2 mps 592 mmHg 62%
    21:00 +12°C° 0.1 mm 1 mps 592 mmHg 69%
    22:00 +10°C° 0.1 mm 1 mps 591 mmHg 75%
    23:00 +10°C° 0 mm 1 mps 591 mmHg 77%

    23 June, Saturday

    Time Temperature Precipitation Wind Pressure Humidity
    00:00 +9°C° 0 mm 1 mps 591 mmHg 79%
    01:00 +8°C° 0 mm 1 mps 590 mmHg 81%
    02:00 +8°C° 0 mm 1 mps 590 mmHg 82%
    03:00 +8°C° 0 mm 1 mps 590 mmHg 83%
    04:00 +7°C° 0 mm 1 mps 590 mmHg 84%
    05:00 +9°C° 0 mm 1 mps 591 mmHg 77%
    06:00 +11°C° 0 mm 1 mps 591 mmHg 70%
    07:00 +13°C° 0 mm 1 mps 592 mmHg 63%
    08:00 +14°C° 0 mm 1 mps 593 mmHg 57%
    09:00 +15°C° 0 mm 1 mps 593 mmHg 51%
    10:00 +17°C° 0 mm 2 mps 593 mmHg 45%
    11:00 +17°C° 0.2 mm 2 mps 593 mmHg 43%
    12:00 +18°C° 0.2 mm 2 mps 593 mmHg 41%
    13:00 +19°C° 0.2 mm 2 mps 593 mmHg 38%
    14:00 +19°C° 0.3 mm 3 mps 593 mmHg 39%
    15:00 +19°C° 0.3 mm 3 mps 593 mmHg 40%
    16:00 +19°C° 0.3 mm 3 mps 593 mmHg 40%
    17:00 +18°C° 0.4 mm 3 mps 593 mmHg 44%
    18:00 +18°C° 0.4 mm 3 mps 593 mmHg 48%
    19:00 +17°C° 0.4 mm 3 mps 592 mmHg 52%
    20:00 +15°C° 0.4 mm 2 mps 592 mmHg 59%
    21:00 +13°C° 0.4 mm 2 mps 591 mmHg 66%
    22:00 +12°C° 0.4 mm 1 mps 591 mmHg 73%
    23:00 +11°C° 0.1 mm 1 mps 591 mmHg 76%
    Show more